Location: ????
(37.5655°N, 71.4845°E)
Time: 08:26:22
(UTC+00:00)

Daily predictions for brighter satellites

Satellite Brightness Start Highest point End
(mag) Time Altitude Azimuth Time Altitude Azimuth Time Altitude Azimuth
Cosmos 1340 3.7 12:41:35 10° NNE 12:44:47 25° ENE 12:47:57 10° SE
Cosmos 1758 Rocket 3.9 12:40:46 10° NNW 12:45:08 70° W 12:49:25 10° S
NOSS 3-3 (A) 4.3 12:39:57 10° S 12:45:12 41° ESE 12:50:56 10° NE
NOSS 3-3 (C) 4.3 12:40:04 10° S 12:45:19 40° ESE 12:51:03 10° NE
Meteor 1-11 4.4 12:42:50 10° N 12:48:37 85° W 12:54:24 10° S
Aureole 3 Rocket 3.3 12:44:59 10° SSE 12:48:37 46° E 12:53:32 10° NNE
Cosmos 2058 4.5 12:46:37 10° NE 12:48:58 15° ENE 12:51:18 10° ESE
FengYun 1-2 T 4.4 12:43:32 10° SSE 12:49:03 58° ENE 12:54:34 10° N
Meteor 2-10 Rocket 4.4 12:45:08 10° SSE 12:49:34 27° E 12:53:53 10° NE
Cosmos 1346 Rocket 4.4 12:47:50 10° NE 12:50:13 15° ENE 12:52:36 10° ESE
Cosmos 1606 Rocket 4.1 12:47:43 10° SSW 12:52:02 65° W 12:56:25 10° N
ASTRO E2 4.0 12:48:40 10° SW 12:52:11 31° S 12:55:42 10° ESE
Meteor 2-16 Rocket 4.4 12:48:48 10° N 12:54:52 66° E 13:00:54 10° SSE
Cosmos 1315 Rocket 4.1 12:53:23 10° SE 12:56:18 20° E 12:59:16 10° NE
H-2A R/B 3.6 12:57:24 10° E 13:00:32 16° ENE 13:03:41 10° NNE
YAOGAN 6 4.5 13:00:26 10° SSW 13:03:48 36° W 13:07:14 10° NNW
SKYMED 2 3.6 13:03:02 10° NNE 13:07:19 57° E 13:11:34 10° S
Cosmos 2219 3.3 13:02:11 10° NNW 13:07:53 59° ENE 13:13:31 10° SE
SMAP 4.0 13:05:03 10° S 13:09:34 52° W 13:14:08 10° NNW
Cosmos 1455 3.0 13:07:18 10° SSE 13:10:32 28° E 13:13:48 10° NNE
Okean-O 3.4 13:06:52 10° SE 13:10:40 29° ENE 13:14:29 10° N
MOS 1 Rocket 4.5 13:09:46 10° NE 13:13:38 23° E 13:17:38 10° SSE
Cosmos 1656 3.9 13:10:31 10° SSW 13:16:02 74° WNW 13:21:41 10° NNE
USA 281 3.6 13:09:40 10° SSE 13:16:11 71° WSW 13:22:46 10° NNW
Cosmos 1244 Rocket 4.5 13:10:37 10° N 13:16:52 83° E 13:23:09 10° S
YAOGAN 3 4.5 13:14:14 10° SSE 13:18:33 71° ENE 13:22:54 10° N
Feng Yun 1-1 Rocket 4.3 13:13:23 10° SSE 13:19:15 80° ENE 13:25:12 10° NNW
Cosmos 44 Rocket 3.6 13:15:16 10° S 13:19:43 43° ESE 13:23:39 13° NE
Cosmos 2369 3.8 13:20:12 10° S 13:25:47 59° ESE 13:31:23 10° NNE
Cosmos 968 Rocket 3.5 13:21:19 10° N 13:26:26 55° ENE 13:31:28 10° SSE
BREEZE-M DEB (TANK) 3.8 13:24:33 10° SW 13:28:02 67° SE 13:37:59 12° NE
Cosmos 2058 Rocket 4.0 13:25:13 10° SSW 13:29:34 52° W 13:33:59 10° N
IRS-1C Rocket 4.0 13:25:50 10° SSE 13:31:05 81° ENE 13:36:23 10° NNW
CSL-04 Rocket 4.4 13:29:41 10° SE 13:34:31 32° ENE 13:39:19 10° N
SL-08 ROCKET BODY 4.4 13:29:27 10° N 13:35:35 68° E 13:41:44 10° SSE
Cosmos 1408 2.7 13:34:51 10° N 13:38:26 50° E 13:42:00 10° SSE
Cosmos 2227 Rocket 2.1 13:33:27 10° NNW 13:39:08 82° ENE 13:44:48 10° SSE
Cosmos 2263 Rocket 4.1 13:38:21 10° NNE 13:39:59 13° NE 13:39:59 13° NE
Cosmos 1076 Rocket 3.6 13:41:17 10° N 13:45:24 46° E 13:49:30 10° SSE
Cosmos 1939 Rocket 3.4 13:42:41 10° S 13:46:35 58° W 13:50:28 10° NNW
Cosmos 1697 Rocket 2.8 13:42:57 10° SSW 13:48:33 75° WNW 13:54:12 10° NNE
S3M 3.9 13:43:35 10° S 13:49:40 89° W 13:55:52 10° N
Cosmos 1689 Rocket 4.1 13:48:46 10° NNW 13:51:18 28° WNW 13:53:48 10° SW
OAO 2 Rocket 3.4 13:46:31 10° W 13:51:28 66° S 13:53:16 38° ESE
Cosmos 1892 3.2 13:49:14 10° NNW 13:53:04 61° W 13:56:53 10° S
Cosmos 2315 Rocket 4.1 13:47:17 10° SSE 13:53:09 47° E 13:59:03 10° NNE
COSMO-SKYMED 1 4.0 13:51:15 10° N 13:55:17 39° WNW 13:59:18 10° SW
Cosmos 1486 Rocket 4.2 13:50:06 10° NNW 13:55:26 76° WSW 14:00:42 10° S
BREEZE-M DEB (TANK) 2.7 13:53:32 10° SW 13:55:28 44° WSW 13:55:28 44° WSW
USA 307 3.7 13:54:12 10° NNW 13:57:53 34° NNE 13:57:53 34° NNE
Milstar 3 3.6 13:52:43 10° WSW 13:59:11 40° S 14:02:38 24° SE
Meteor 2-1 Rocket 4.4 13:54:58 10° SSW 14:00:27 73° W 14:05:59 10° N
Atlas Centaur 2 3.5 13:52:36 10° WSW 14:00:38 53° S 14:04:53 29° ESE
USA 308 3.7 13:59:07 10° NNW 14:02:40 36° NNE 14:02:40 36° NNE
Helios 1A Rocket 3.4 13:59:06 10° S 14:03:10 60° W 14:07:14 10° NNW
BREEZE-M DEB (TANK) 4.1 14:00:24 10° SSW 14:02:25 21° S 14:02:25 21° S
YAOGAN 1 2.4 13:59:20 10° SSE 14:03:40 89° ENE 14:08:00 10° NNW
Cosmos 1503 Rocket 3.9 14:00:24 10° NNW 14:05:39 74° ENE 14:08:45 25° SSE
Cosmos 1825 3.1 14:05:22 10° N 14:07:42 36° N 14:07:42 36° N
Cosmos 1812 Rocket 3.8 14:06:11 10° SSW 14:10:34 68° W 14:14:57 10° N
DMSP B5D1-3 4.5 14:06:50 10° NNE 14:12:00 85° WNW 14:17:10 10° SSW
Cosmos 1980 Rocket 2.1 14:06:26 10° SSW 14:12:04 88° ESE 14:15:40 23° NNE
CZ-4 R/B 2.0 14:10:41 10° S 14:14:28 51° W 14:18:15 10° NNW
GPS 2-04 Rocket1 3.1 14:12:24 10° WSW 14:16:00 56° SSW 14:16:00 56° SSW
CSL-04 Debris 4.0 14:11:45 10° SSE 14:17:11 81° ENE 14:22:39 10° NNW
CZ-2C R/B 3.4 14:12:09 10° S 14:17:57 74° WSW 14:23:38 10° NNW
Cosmos 1354 Rocket 3.9 14:13:05 10° NNW 14:18:22 84° ENE 14:20:01 46° SSE
Cosmos 2297 Rocket 3.7 14:13:20 10° NW 14:18:28 36° WSW 14:23:33 10° S
SJ-11-01 4.1 14:18:27 70° SE 14:18:59 83° ENE 14:23:40 10° N
Timation 1 Rocket 4.3 14:13:16 10° NNW 14:19:15 62° ENE 14:19:54 58° E
Cosmos 2058 4.4 14:22:14 10° NNW 14:25:59 35° W 14:29:43 10° SSW
SL-4 R/B 4.3 14:24:37 10° NNW 14:25:22 14° NNW 14:25:22 14° NNW
NOSS 3-4 (A) 4.3 14:24:18 10° NNW 14:30:43 43° NE 14:30:43 43° NE
NOSS 3-4 (C) 4.3 14:24:24 10° NNW 14:30:47 42° NE 14:30:47 42° NE
ASTRO E2 4.5 14:28:43 10° WSW 14:31:06 26° SW 14:31:06 26° SW
SeaSat 1 4.2 14:41:02 22° N 14:41:02 22° N 14:42:52 10° NNW
H-2A R/B 2.4 14:35:16 18° S 14:39:19 67° W 14:44:46 10° NNW
ATLAS 2AS CENTAUR R/B 3.5 14:46:02 10° NNW 14:51:23 39° NNE 14:51:23 39° NNE
ARGOS 3.6 14:54:18 58° NW 14:54:18 58° NW 14:58:51 10° NNW
CZ-4C R/B 4.3 15:15:53 10° NNW 15:19:15 26° N 15:19:15 26° N
Cosmos 2263 Rocket 4.3 15:20:07 10° NNW 15:21:42 20° NNW 15:21:42 20° NNW
Atlas Centaur 2 4.2 15:42:06 10° W 15:47:29 35° SW 15:47:29 35° SW
Cosmos 2082 Rocket 4.1 22:21:36 25° E 22:21:36 25° E 22:25:41 10° NE
CENTAUR R/B 4.1 22:42:51 25° N 22:42:51 25° N 22:46:02 10° NNE
CZ-3 R/B 4.2 22:29:28 43° SW 22:40:08 59° S 22:51:10 10° E
Cosmos 1697 Rocket 4.0 22:43:01 34° NE 22:43:57 36° ENE 22:49:08 10° SE
Meteor 2-5 Rocket 4.4 23:00:34 10° SSE 23:06:03 52° E 23:11:40 10° NNE
Cosmos 1980 Rocket 3.9 23:02:39 10° N 23:07:31 29° ENE 23:12:21 10° ESE
H-2A R/B 4.4 23:05:10 10° SSE 23:06:12 17° SSE 23:06:12 17° SSE
CZ-2C R/B 3.6 23:09:32 10° NNE 23:12:18 34° NNE 23:12:18 34° NNE
ATLAS 3B R/B 2.5 23:28:48 60° W 23:29:27 63° NW 23:36:02 10° NNE
CBERS 1 LM4 rocket 4.3 23:24:40 10° NNE 23:29:32 82° ESE 23:30:39 53° S
Cosmos 2360 4.4 23:28:18 23° NNW 23:31:58 71° ENE 23:37:37 10° SSE
ADEOS Rocket 2.6 23:26:38 10° S 23:32:07 79° WSW 23:37:43 10° NNW
Cosmos 1833 Rocket 3.6 23:39:36 32° NNW 23:39:36 32° NNW 23:43:19 10° N
Cosmos 2251 Rocket 3.4 23:38:12 46° SSW 23:39:50 78° WNW 23:45:12 10° NNE
Cosmos 2278 4.2 23:36:14 10° NNW 23:41:49 59° ENE 23:47:22 10° SE
Cosmos 1892 Rocket 4.0 23:38:01 10° S 23:42:17 62° E 23:46:37 10° NNE
Cosmos 1300 2.6 23:52:13 16° N 23:55:10 84° E 23:58:59 10° S
